• In Netherlands
  • List of Countries
  • For 7 days
  • Water Temperature
  • Satellite Maps
  • Weather Map
  • Weather Widgets
  • user-avatar
    Login

    Hourly Weather San Miguel de Tucumán

    Today, 23 September, Saturday

    Time Temperature Precipitation Wind Pressure Humidity
    00:00 +18°C° 0 mm 1 mps 724 mmHg 60%
    01:00 +18°C° 0 mm 1 mps 724 mmHg 61%
    02:00 +16°C° 0 mm 1 mps 724 mmHg 63%
    03:00 +16°C° 0 mm 1 mps 724 mmHg 64%
    04:00 +16°C° 0 mm 1 mps 724 mmHg 65%
    05:00 +15°C° 0 mm 1 mps 724 mmHg 66%
    06:00 +18°C° 0 mm 1 mps 724 mmHg 62%
    07:00 +19°C° 0 mm 1 mps 724 mmHg 58%
    08:00 +21°C° 0 mm 1 mps 725 mmHg 54%
    09:00 +23°C° 0 mm 2 mps 725 mmHg 49%
    10:00 +24°C° 0 mm 2 mps 725 mmHg 44%
    11:00 +26°C° 0 mm 2 mps 725 mmHg 39%
    12:00 +27°C° 0 mm 2 mps 724 mmHg 37%
    13:00 +28°C° 0 mm 3 mps 723 mmHg 34%
    14:00 +29°C° 0 mm 3 mps 722 mmHg 32%
    15:00 +29°C° 0 mm 3 mps 722 mmHg 33%
    16:00 +28°C° 0 mm 3 mps 721 mmHg 33%
    17:00 +28°C° 0 mm 3 mps 721 mmHg 34%
    18:00 +26°C° 0 mm 2 mps 721 mmHg 38%
    19:00 +24°C° 0 mm 2 mps 721 mmHg 42%
    20:00 +22°C° 0 mm 1 mps 722 mmHg 46%
    21:00 +21°C° 0 mm 1 mps 722 mmHg 47%
    22:00 +21°C° 0 mm 1 mps 722 mmHg 49%
    23:00 +21°C° 0 mm 1 mps 722 mmHg 50%

    Tomorrow, 24 September, Sunday

    Time Temperature Precipitation Wind Pressure Humidity
    00:00 +20°C° 0 mm 1 mps 721 mmHg 52%
    01:00 +20°C° 0 mm 1 mps 720 mmHg 54%
    02:00 +20°C° 0 mm 1 mps 720 mmHg 55%
    03:00 +19°C° 0 mm 1 mps 719 mmHg 57%
    04:00 +19°C° 0 mm 1 mps 719 mmHg 59%
    05:00 +18°C° 0 mm 1 mps 719 mmHg 61%
    06:00 +20°C° 0 mm 1 mps 719 mmHg 57%
    07:00 +21°C° 0 mm 1 mps 720 mmHg 53%
    08:00 +23°C° 0 mm 1 mps 720 mmHg 50%
    09:00 +25°C° 0 mm 2 mps 720 mmHg 44%
    10:00 +28°C° 0 mm 2 mps 720 mmHg 39%
    11:00 +30°C° 0 mm 3 mps 720 mmHg 33%
    12:00 +33°C° 0 mm 3 mps 719 mmHg 32%
    13:00 +34°C° 0 mm 3 mps 718 mmHg 30%
    14:00 +35°C° 0 mm 3 mps 717 mmHg 28%
    15:00 +34°C° 0 mm 3 mps 717 mmHg 30%
    16:00 +34°C° 0 mm 3 mps 717 mmHg 31%
    17:00 +33°C° 0 mm 3 mps 717 mmHg 33%
    18:00 +30°C° 0 mm 2 mps 718 mmHg 39%
    19:00 +28°C° 0 mm 2 mps 718 mmHg 44%
    20:00 +26°C° 0 mm 1 mps 719 mmHg 50%
    21:00 +26°C° 0 mm 1 mps 720 mmHg 52%
    22:00 +25°C° 0 mm 1 mps 720 mmHg 53%
    23:00 +25°C° 0 mm 1 mps 720 mmHg 55%

    Day after tomorrow, 25 September, Monday

    Time Temperature Precipitation Wind Pressure Humidity
    00:00 +24°C° 0 mm 1 mps 720 mmHg 56%
    01:00 +24°C° 0 mm 1 mps 720 mmHg 57%
    02:00 +24°C° 0 mm 1 mps 720 mmHg 58%
    03:00 +23°C° 0.1 mm 1 mps 720 mmHg 59%
    04:00 +23°C° 0.1 mm 1 mps 720 mmHg 61%
    05:00 +22°C° 0.1 mm 1 mps 720 mmHg 63%
    06:00 +23°C° 0.2 mm 1 mps 721 mmHg 59%
    07:00 +25°C° 0.2 mm 1 mps 722 mmHg 56%
    08:00 +26°C° 0.2 mm 1 mps 723 mmHg 52%
    09:00 +28°C° 0.2 mm 2 mps 723 mmHg 48%
    10:00 +29°C° 0.2 mm 2 mps 723 mmHg 44%
    11:00 +31°C° 0.2 mm 2 mps 723 mmHg 40%
    12:00 +32°C° 0 mm 2 mps 722 mmHg 39%
    13:00 +34°C° 0 mm 2 mps 722 mmHg 37%
    14:00 +35°C° 0 mm 2 mps 721 mmHg 36%
    15:00 +34°C° 0 mm 2 mps 721 mmHg 38%
    16:00 +34°C° 0 mm 2 mps 720 mmHg 39%
    17:00 +32°C° 0 mm 1 mps 720 mmHg 41%
    18:00 +31°C° 0 mm 1 mps 720 mmHg 46%
    19:00 +29°C° 0 mm 1 mps 720 mmHg 51%
    20:00 +27°C° 0 mm 1 mps 721 mmHg 56%
    21:00 +27°C° 0.1 mm 1 mps 721 mmHg 57%
    22:00 +26°C° 0.1 mm 1 mps 721 mmHg 59%
    23:00 +26°C° 0.1 mm 1 mps 721 mmHg 61%

    26 September, Tuesday

    Time Temperature Precipitation Wind Pressure Humidity
    00:00 +26°C° 0 mm 1 mps 720 mmHg 62%
    01:00 +26°C° 0 mm 1 mps 720 mmHg 63%
    02:00 +25°C° 0 mm 1 mps 720 mmHg 64%
    03:00 +25°C° 0 mm 1 mps 719 mmHg 67%
    04:00 +24°C° 0 mm 1 mps 719 mmHg 69%
    05:00 +24°C° 0 mm 1 mps 719 mmHg 71%
    06:00 +25°C° 0 mm 1 mps 719 mmHg 67%
    07:00 +26°C° 0 mm 1 mps 719 mmHg 63%
    08:00 +27°C° 0 mm 1 mps 719 mmHg 58%
    09:00 +30°C° 0 mm 1 mps 719 mmHg 52%
    10:00 +32°C° 0 mm 2 mps 719 mmHg 45%
    11:00 +35°C° 0 mm 2 mps 719 mmHg 38%
    12:00 +35°C° 0 mm 2 mps 718 mmHg 36%
    13:00 +36°C° 0 mm 2 mps 717 mmHg 35%
    14:00 +36°C° 0 mm 3 mps 716 mmHg 33%
    15:00 +36°C° 0.1 mm 2 mps 716 mmHg 34%
    16:00 +35°C° 0.1 mm 2 mps 716 mmHg 36%
    17:00 +34°C° 0.1 mm 1 mps 716 mmHg 38%
    18:00 +32°C° 0.8 mm 1 mps 716 mmHg 45%
    19:00 +30°C° 0.8 mm 2 mps 717 mmHg 52%
    20:00 +28°C° 0.8 mm 2 mps 718 mmHg 59%
    21:00 +27°C° 3.2 mm 2 mps 719 mmHg 63%
    22:00 +26°C° 3.2 mm 2 mps 719 mmHg 68%
    23:00 +25°C° 3.2 mm 2 mps 720 mmHg 73%

    27 September, Wednesday

    Time Temperature Precipitation Wind Pressure Humidity
    00:00 +25°C° 2.1 mm 2 mps 720 mmHg 76%
    01:00 +24°C° 2.1 mm 2 mps 720 mmHg 79%
    02:00 +24°C° 2.1 mm 3 mps 720 mmHg 83%
    03:00 +23°C° 0.5 mm 2 mps 720 mmHg 85%
    04:00 +23°C° 0.5 mm 2 mps 720 mmHg 87%
    05:00 +23°C° 0.5 mm 2 mps 720 mmHg 90%
    06:00 +23°C° 1.3 mm 2 mps 721 mmHg 89%
    07:00 +23°C° 1.3 mm 2 mps 721 mmHg 88%
    08:00 +22°C° 1.3 mm 3 mps 722 mmHg 87%
    09:00 +22°C° 2 mm 3 mps 722 mmHg 88%
    10:00 +22°C° 2 mm 3 mps 722 mmHg 88%
    11:00 +21°C° 2 mm 3 mps 722 mmHg 88%
    12:00 +21°C° 0.8 mm 3 mps 722 mmHg 89%
    13:00 +21°C° 0.8 mm 3 mps 721 mmHg 90%
    14:00 +20°C° 0.8 mm 3 mps 720 mmHg 91%
    15:00 +20°C° 0.4 mm 3 mps 720 mmHg 91%
    16:00 +19°C° 0.4 mm 3 mps 720 mmHg 92%
    17:00 +19°C° 0.4 mm 2 mps 720 mmHg 92%
    18:00 +19°C° 0.1 mm 2 mps 720 mmHg 92%
    19:00 +19°C° 0.1 mm 2 mps 721 mmHg 92%
    20:00 +19°C° 0.1 mm 1 mps 721 mmHg 92%
    21:00 +19°C° 0 mm 1 mps 721 mmHg 92%
    22:00 +19°C° 0 mm 1 mps 721 mmHg 92%
    23:00 +19°C° 0 mm 1 mps 721 mmHg 92%

    28 September, Thursday

    Time Temperature Precipitation Wind Pressure Humidity
    00:00 +19°C° 0 mm 1 mps 721 mmHg 92%
    01:00 +19°C° 0 mm 1 mps 720 mmHg 93%
    02:00 +19°C° 0 mm 1 mps 720 mmHg 93%
    03:00 +19°C° 0 mm 1 mps 720 mmHg 93%
    04:00 +18°C° 0 mm 1 mps 720 mmHg 93%
    05:00 +18°C° 0 mm 1 mps 720 mmHg 93%
    06:00 +19°C° 0 mm 1 mps 721 mmHg 90%
    07:00 +20°C° 0 mm 1 mps 721 mmHg 88%
    08:00 +20°C° 0 mm 1 mps 721 mmHg 85%
    09:00 +21°C° 0 mm 1 mps 721 mmHg 81%
    10:00 +21°C° 0 mm 2 mps 721 mmHg 77%
    11:00 +23°C° 0 mm 2 mps 721 mmHg 73%
    12:00 +24°C° 0 mm 2 mps 720 mmHg 72%
    13:00 +24°C° 0 mm 2 mps 719 mmHg 70%
    14:00 +25°C° 0 mm 2 mps 719 mmHg 69%
    15:00 +25°C° 0 mm 2 mps 718 mmHg 70%
    16:00 +25°C° 0 mm 2 mps 718 mmHg 71%
    17:00 +25°C° 0 mm 2 mps 718 mmHg 72%
    18:00 +24°C° 0 mm 1 mps 718 mmHg 76%
    19:00 +23°C° 0 mm 1 mps 719 mmHg 81%
    20:00 +22°C° 0 mm 1 mps 720 mmHg 86%
    21:00 +22°C° 0 mm 1 mps 720 mmHg 86%
    22:00 +22°C° 0 mm 1 mps 720 mmHg 87%
    23:00 +20°C° 0 mm 0 mps 720 mmHg 87%
    Show more